Wind_Speed
15 15 15 15 15 15 16 16 17 17 17 17 18 18 18 18 18 18 18 18 20 20 19 18 17 18 19 20 20 19 19 18 19 19 18 19 20 20 20 20 21 21 22 22
16 16 16 15 15 15 16 17 17 17 17 17 18 18 18 18 19 19 18 19 19 19 19 18 18 19 19 19 19 19 19 19 19 18 18 19 19 19 20 21 22 22 23 23
17 17 17 17 16 16 17 17 17 17 17 17 17 17 18 19 19 19 19 19 19 19 19 19 19 19 19 19 20 20 19 19 19 19 19 20 20 20 21 21 22 22 22 22
18 18 18 18 17 17 17 17 17 18 18 18 18 19 19 20 20 20 19 19 19 19 20 19 19 19 19 19 20 20 20 19 19 20 20 20 20 21 21 21 21 21 21 21
20 20 19 19 18 18 17 17 18 19 19 19 19 19 19 20 20 20 19 19 19 20 20 19 19 19 19 20 20 20 20 19 19 19 20 20 20 20 20 20 20 19 19 20
21 21 21 19 19 19 19 18 18 18 19 19 19 19 19 19 19 19 19 19 19 20 20 19 19 19 19 20 21 20 20 19 19 19 19 18 18 19 19 19 19 19 19 19
22 22 22 21 20 20 20 20 19 19 19 19 19 19 20 20 19 19 18 19 19 19 20 20 20 20 20 20 20 19 19 19 19 18 18 18 18 17 18 19 18 18 18 18
22 22 21 21 21 21 21 21 20 20 20 20 20 20 19 19 19 19 18 19 19 20 20 20 20 20 19 19 19 19 19 18 18 18 17 17 17 17 18 18 17 17 17 18
22 22 22 22 22 22 22 22 21 21 21 21 21 20 20 19 19 19 19 19 19 19 19 20 20 20 19 19 18 17 17 17 17 17 16 16 17 17 18 17 17 17 17 17
23 23 23 24 23 22 22 22 22 22 22 22 21 20 20 20 19 19 19 19 19 19 19 20 20 19 19 18 17 16 16 17 17 17 16 16 17 17 17 16 16 16 16 17
25 24 23 23 24 23 23 23 24 23 23 23 22 21 21 20 20 20 20 20 19 19 19 19 19 19 19 18 16 16 15 16 16 17 17 16 16 17 16 15 15 15 16 17
25 25 25 24 24 24 24 23 23 23 23 23 23 21 21 21 21 21 21 21 20 19 19 19 20 19 18 17 16 15 15 16 16 16 16 16 17 16 15 14 14 14 15 17
24 24 25 25 24 23 23 23 23 22 23 23 22 21 22 22 22 22 21 21 20 20 20 20 20 19 18 17 16 15 15 15 16 16 16 16 16 16 15 15 15 15 16 17
25 25 25 25 23 23 23 23 22 23 23 23 22 22 22 23 23 23 23 22 21 21 21 20 19 19 18 17 16 15 15 15 16 16 16 16 16 16 16 15 15 15 16 16
25 25 26 26 25 25 25 25 24 23 23 23 23 22 22 23 23 23 23 22 21 21 21 20 20 19 18 17 17 16 16 15 16 17 16 16 16 16 15 15 15 15 15 15
26 25 25 25 25 25 25 25 24 24 24 24 23 23 22 22 22 22 22 22 21 21 20 20 19 19 18 18 17 16 16 16 16 16 16 16 15 15 15 15 14 15 15 16
26 26 26 25 25 25 25 25 25 25 25 25 24 23 23 22 22 22 22 22 21 21 21 21 21 20 19 18 17 17 16 16 16 16 15 15 15 15 15 14 14 15 16 16
25 25 26 25 25 25 24 24 25 25 24 24 23 22 22 22 22 23 23 22 22 22 21 21 20 19 18 17 17 16 16 16 16 16 15 14 14 14 14 14 15 15 16 17
27 27 26 26 26 26 25 24 24 23 23 23 23 23 22 22 23 23 24 23 22 21 20 19 19 18 18 16 16 16 16 16 15 15 14 14 13 13 14 15 15 15 15 17
28 28 27 26 25 25 25 24 23 23 23 23 23 23 23 23 23 24 24 23 22 21 20 19 18 18 17 17 16 16 16 16 15 14 14 14 13 13 14 15 15 15 15 16
27 27 27 26 25 24 23 23 23 22 23 23 23 22 22 23 23 22 22 21 21 21 20 19 19 19 18 16 16 16 15 14 14 14 14 14 14 14 14 15 15 16 16 16
27 27 26 25 25 24 23 23 23 23 23 23 23 23 23 23 23 22 21 21 20 20 20 20 20 19 18 17 16 17 17 16 16 15 14 14 14 14 14 15 16 16 17 17
27 27 27 27 26 26 25 25 24 23 23 23 23 23 23 23 22 21 21 21 20 20 19 19 19 18 17 18 17 17 17 16 16 15 15 15 14 14 15 15 16 17 17 18
27 27 27 27 26 26 26 25 24 24 24 24 24 24 23 23 22 21 21 20 20 19 18 18 17 17 17 17 17 16 16 16 16 16 15 15 14 14 15 15 16 16 17 18
26 26 26 26 25 25 25 25 25 25 24 24 24 24 22 21 21 21 20 20 19 18 18 18 18 18 17 16 16 16 15 15 15 15 15 14 14 15 15 16 16 17 17 18
26 26 25 25 26 26 25 25 25 24 24 23 23 22 21 21 20 20 20 19 19 18 17 17 17 17 17 17 16 16 15 15 16 16 16 15 15 15 16 16 17 17 17 18
27 27 26 26 26 26 25 24 23 23 23 22 21 21 21 20 20 20 19 19 18 18 18 18 17 17 17 17 17 17 16 16 17 16 16 16 16 16 16 17 17 17 17 17
Wind_Direction
286 288 288 288 288 287 290 295 297 300 303 306 308 310 313 315 317 320 322 326 326 325 327 326 323 321 321 322 323 323 324 324 323 320 317 318 319 319 318 318 319 319 319 319
286 287 286 286 287 288 290 294 296 299 303 305 307 309 313 316 317 319 323 325 326 326 327 328 327 325 324 324 326 326 324 323 322 322 321 320 319 317 317 318 319 321 322 321
287 288 287 286 286 287 291 297 299 303 306 305 305 308 312 316 317 317 320 322 323 324 325 326 327 327 327 325 325 326 325 323 323 322 322 322 323 323 322 321 321 323 324 325
287 288 287 291 288 287 291 295 299 303 306 309 307 308 312 316 316 316 317 319 320 320 322 323 324 325 325 326 326 326 326 325 325 324 324 325 326 326 325 325 324 325 327 329
285 286 286 287 287 287 289 291 297 301 304 307 309 309 311 314 315 314 315 316 317 317 318 320 322 322 324 326 326 327 327 326 327 327 326 326 327 329 328 327 329 329 330 332
281 283 284 285 284 285 287 289 295 299 303 306 310 311 311 313 315 315 317 318 316 316 317 319 321 321 323 325 326 326 327 328 328 328 329 329 330 331 331 332 333 333 335 338
280 281 282 282 283 284 286 291 295 298 302 304 306 309 312 313 314 316 318 319 318 318 318 319 320 321 322 324 326 326 326 327 328 328 330 332 332 333 334 336 338 339 339 340
278 279 280 281 282 283 285 287 291 294 297 299 301 306 309 310 312 314 316 316 316 318 319 321 322 322 322 322 324 326 327 328 329 330 331 333 335 336 337 338 340 343 344 343
277 278 279 279 280 282 283 284 288 291 291 294 298 302 306 308 311 313 314 315 315 316 319 322 323 323 322 322 323 326 328 330 331 331 332 333 335 337 338 338 341 343 347 349
273 275 277 278 278 280 282 284 286 288 290 292 296 299 303 306 310 312 312 312 312 313 315 319 320 321 322 322 322 326 329 332 333 332 332 331 331 334 335 337 339 340 343 347
269 272 273 275 276 277 280 282 283 286 289 292 295 297 299 303 308 311 311 310 309 310 312 316 318 319 320 321 321 323 327 332 333 332 332 332 331 332 333 334 335 338 341 343
267 268 269 270 273 274 276 279 280 284 287 290 292 292 295 301 306 308 307 306 305 306 309 313 315 315 316 317 317 319 324 328 329 330 332 334 334 333 334 333 333 335 337 340
267 266 266 269 271 273 275 277 280 284 287 288 289 290 294 299 302 302 303 303 302 302 305 310 313 313 313 313 312 313 317 322 324 327 330 332 334 334 333 331 330 332 335 338
265 264 265 266 268 269 273 277 280 284 285 286 286 288 291 294 297 300 301 299 299 299 302 305 309 310 310 309 310 308 310 314 318 320 323 327 330 330 330 330 331 333 335 337
263 264 264 264 265 268 272 276 279 282 284 284 284 286 288 291 293 297 298 297 297 299 301 302 305 307 306 306 307 305 305 310 314 316 318 321 325 327 329 330 331 333 334 336
264 265 265 265 266 269 272 276 280 281 282 282 283 284 286 289 291 293 294 295 296 296 298 299 301 302 302 302 304 303 302 305 309 312 314 317 320 323 326 327 328 330 331 333
266 267 268 267 267 269 272 274 276 279 280 280 281 282 283 286 288 290 292 293 294 296 297 298 299 299 299 299 300 301 301 302 304 307 310 313 315 318 322 325 326 327 328 330
265 265 266 267 268 270 272 273 275 276 277 279 280 281 282 284 287 288 290 292 292 294 295 296 296 295 297 296 297 299 298 299 300 302 306 309 313 316 318 321 323 325 326 329
264 265 265 266 267 269 270 272 273 274 276 277 278 280 280 282 285 287 288 289 289 291 292 293 294 295 295 294 293 295 297 298 298 300 303 306 310 314 317 319 321 324 325 327
265 266 267 268 267 267 267 269 272 274 275 277 278 279 281 282 284 285 287 287 285 285 286 287 289 292 291 290 292 294 297 295 293 294 299 304 308 310 314 318 322 325 325 327
263 264 264 265 267 268 268 268 271 273 275 277 278 278 280 282 283 284 286 286 284 282 282 284 285 286 285 285 289 290 293 293 291 292 295 299 304 307 309 314 320 323 324 326
259 260 260 261 262 264 265 267 270 274 277 278 278 278 280 282 283 285 286 286 283 281 282 284 285 285 282 282 284 287 288 288 289 291 291 295 300 303 305 310 316 320 321 323
256 257 258 259 261 262 263 265 268 272 276 278 279 279 281 282 282 283 285 286 283 282 282 283 284 284 284 283 282 286 286 286 288 289 289 290 294 298 302 307 313 317 320 322
256 257 258 259 261 262 264 266 269 272 274 277 278 279 280 280 281 281 282 283 281 279 280 281 282 283 285 284 282 284 287 288 289 290 291 292 295 297 300 305 309 315 319 320
258 257 258 260 262 263 265 267 269 271 273 275 277 277 276 277 279 280 281 281 279 279 279 278 280 282 282 282 281 281 284 287 288 289 290 292 293 295 297 302 306 310 314 317
255 256 258 260 262 264 265 266 268 271 273 275 275 274 274 275 276 277 278 278 277 277 278 279 280 282 281 280 278 278 280 284 287 289 291 293 293 293 296 300 304 308 310 313
255 256 258 261 262 263 264 265 266 268 270 271 270 272 272 273 275 275 275 275 275 276 277 277 278 281 282 281 279 276 278 281 283 285 289 292 292 292 294 298 302 305 307 309
Height
5820 5819 5818 5818 5817 5816 5814 5813 5812 5811 5809 5808 5805 5802 5800 5797 5795 5792 5789 5785 5781 5778 5774 5771 5768 5765 5762 5759 5755 5752 5749 5745 5742 5739 5737 5734 5731 5728 5725 5721 5718 5715 5711 5707
5817 5816 5815 5814 5814 5812 5811 5810 5809 5807 5806 5804 5802 5799 5797 5794 5791 5788 5785 5782 5778 5775 5771 5768 5765 5762 5758 5755 5752 5749 5746 5742 5739 5736 5733 5730 5727 5724 5721 5717 5714 5710 5706 5702
5813 5812 5811 5810 5810 5809 5808 5807 5805 5804 5803 5800 5798 5796 5793 5791 5788 5785 5781 5779 5775 5772 5768 5765 5762 5759 5756 5752 5749 5746 5743 5739 5736 5733 5730 5726 5723 5720 5716 5713 5710 5706 5702 5698
5808 5808 5807 5809 5806 5805 5804 5803 5801 5800 5798 5796 5794 5792 5789 5787 5784 5781 5778 5775 5772 5768 5765 5762 5759 5756 5752 5750 5746 5743 5740 5736 5733 5729 5726 5723 5720 5716 5712 5709 5706 5702 5698 5694
5804 5802 5802 5803 5801 5800 5800 5799 5798 5796 5794 5792 5790 5788 5785 5783 5780 5777 5774 5771 5768 5765 5762 5759 5756 5753 5749 5746 5743 5740 5737 5733 5730 5726 5723 5720 5716 5713 5709 5706 5702 5698 5695 5691
5798 5798 5797 5799 5797 5796 5796 5795 5794 5792 5790 5788 5786 5784 5782 5779 5776 5773 5771 5768 5765 5761 5758 5755 5753 5749 5746 5743 5740 5737 5733 5730 5727 5724 5720 5717 5713 5710 5707 5703 5699 5695 5692 5688
5793 5792 5792 5793 5791 5791 5791 5791 5789 5786 5785 5783 5781 5780 5778 5775 5772 5770 5767 5764 5761 5758 5755 5752 5749 5746 5743 5740 5737 5733 5730 5727 5724 5721 5718 5714 5711 5708 5704 5700 5697 5693 5690 5686
5788 5787 5789 5787 5786 5786 5786 5784 5783 5781 5780 5778 5777 5775 5773 5771 5768 5766 5763 5760 5757 5754 5751 5748 5745 5742 5739 5736 5733 5730 5727 5724 5721 5718 5715 5712 5709 5706 5702 5698 5695 5691 5687 5684
5782 5783 5782 5780 5780 5780 5779 5778 5777 5776 5775 5774 5772 5770 5768 5766 5764 5761 5759 5756 5753 5751 5748 5745 5742 5738 5735 5733 5730 5727 5724 5721 5718 5715 5712 5709 5706 5703 5700 5696 5693 5689 5686 5682
5775 5775 5775 5774 5774 5773 5772 5772 5771 5770 5769 5768 5767 5765 5763 5761 5759 5757 5754 5752 5749 5747 5744 5742 5739 5735 5732 5729 5727 5724 5722 5719 5716 5713 5710 5707 5704 5701 5698 5695 5691 5688 5685 5681
5768 5769 5768 5768 5767 5767 5767 5766 5765 5764 5763 5762 5760 5759 5758 5756 5754 5751 5749 5747 5745 5743 5740 5738 5735 5732 5729 5726 5724 5721 5719 5716 5714 5711 5708 5705 5702 5699 5695 5692 5689 5686 5683 5680
5761 5761 5761 5761 5761 5761 5760 5760 5759 5758 5757 5755 5754 5753 5752 5750 5748 5746 5744 5742 5740 5738 5736 5734 5731 5729 5726 5723 5721 5719 5716 5714 5711 5709 5706 5703 5700 5696 5693 5690 5688 5685 5682 5678
5753 5753 5754 5754 5754 5754 5754 5753 5752 5751 5750 5749 5748 5747 5746 5744 5742 5740 5738 5737 5735 5733 5731 5729 5727 5725 5722 5720 5717 5715 5713 5711 5709 5706 5704 5701 5698 5694 5691 5689 5686 5683 5680 5677
5745 5746 5746 5747 5747 5747 5747 5746 5745 5745 5744 5743 5742 5741 5740 5738 5736 5734 5733 5731 5729 5728 5726 5724 5722 5720 5718 5716 5714 5712 5710 5708 5706 5703 5701 5698 5695 5692 5689 5686 5684 5681 5678 5675
5738 5738 5739 5739 5740 5740 5739 5739 5739 5738 5737 5736 5736 5735 5733 5732 5730 5729 5727 5725 5724 5722 5721 5719 5717 5715 5713 5711 5710 5708 5706 5704 5702 5700 5698 5695 5693 5690 5687 5684 5682 5679 5677 5674
5730 5731 5731 5732 5732 5732 5732 5732 5732 5731 5730 5729 5729 5728 5727 5726 5724 5723 5721 5720 5718 5717 5715 5713 5712 5710 5708 5707 5705 5703 5702 5700 5698 5696 5694 5692 5689 5687 5685 5682 5680 5677 5675 5672
5722 5723 5724 5724 5725 5725 5725 5725 5724 5724 5723 5722 5722 5721 5720 5719 5718 5717 5715 5714 5712 5711 5709 5708 5706 5704 5703 5702 5700 5699 5698 5696 5695 5693 5690 5688 5686 5684 5682 5680 5678 5675 5672 5669
5714 5715 5716 5716 5717 5717 5717 5717 5716 5716 5715 5715 5714 5713 5713 5712 5711 5710 5709 5708 5706 5705 5703 5702 5700 5699 5698 5697 5696 5694 5693 5692 5690 5688 5687 5685 5683 5681 5679 5677 5675 5672 5669 5667
5706 5707 5708 5708 5708 5709 5709 5709 5709 5708 5708 5707 5707 5706 5706 5705 5704 5703 5702 5701 5700 5699 5698 5696 5695 5693 5693 5692 5691 5690 5688 5687 5686 5684 5683 5681 5680 5678 5676 5674 5672 5669 5667 5664
5698 5699 5700 5700 5700 5701 5701 5701 5701 5701 5700 5700 5700 5699 5698 5698 5697 5696 5696 5695 5694 5693 5692 5691 5689 5688 5687 5687 5686 5685 5684 5683 5682 5680 5679 5677 5676 5674 5673 5671 5668 5666 5664 5661
5690 5691 5692 5692 5693 5693 5693 5693 5693 5693 5693 5693 5692 5692 5691 5691 5690 5689 5688 5688 5687 5686 5685 5684 5684 5683 5682 5681 5681 5680 5679 5678 5677 5676 5675 5674 5672 5671 5669 5667 5665 5663 5661 5658
5682 5683 5684 5685 5685 5686 5686 5686 5686 5686 5686 5685 5685 5684 5684 5684 5683 5682 5681 5681 5680 5679 5679 5678 5678 5677 5676 5676 5676 5675 5674 5673 5673 5672 5671 5669 5668 5667 5665 5664 5662 5659 5657 5654
5674 5675 5676 5677 5677 5678 5678 5678 5678 5678 5678 5678 5678 5677 5677 5676 5676 5675 5675 5674 5673 5673 5672 5672 5672 5671 5671 5670 5670 5670 5669 5668 5667 5667 5666 5665 5663 5662 5661 5659 5658 5655 5653 5650
5665 5666 5667 5668 5669 5669 5670 5670 5670 5671 5671 5671 5671 5670 5670 5669 5669 5668 5668 5668 5667 5667 5666 5666 5666 5665 5665 5665 5664 5664 5664 5663 5662 5662 5661 5660 5659 5657 5656 5655 5653 5651 5649 5646
5657 5658 5659 5660 5661 5661 5662 5662 5663 5663 5663 5663 5663 5663 5663 5662 5662 5662 5661 5661 5661 5660 5660 5660 5660 5659 5659 5659 5659 5659 5658 5658 5657 5657 5656 5655 5654 5653 5651 5650 5648 5647 5644 5642
5649 5650 5651 5652 5652 5653 5653 5654 5654 5655 5655 5655 5655 5655 5655 5655 5655 5655 5655 5655 5654 5654 5654 5654 5654 5653 5653 5653 5653 5653 5653 5652 5652 5651 5651 5650 5649 5647 5646 5645 5643 5642 5640 5637
5640 5641 5642 5643 5644 5645 5645 5646 5646 5647 5647 5647 5648 5648 5648 5648 5648 5648 5648 5648 5648 5648 5649 5648 5648 5648 5647 5647 5647 5647 5647 5646 5646 5646 5645 5644 5643 5642 5641 5639 5638 5636 5635 5633